| time (UTC) | temp C | wind direction | speed KPH | gust KPH | rain 1hr cm | rain 24hr cm | rain mn cm | humidity % | barometer mb |
| 20260510140918 | 12 | 45 | 0.0 | 0.0 | 0.00 | 0.00 | 0.00 | 61 | 1022.1 |
| 20260510135916 | 12 | 45 | 0.0 | 0.0 | 0.00 | 0.00 | 0.00 | 58 | 1022.1 |
| 20260510134919 | 11 | 45 | 0.0 | 0.0 | 0.00 | 0.00 | 0.00 | 60 | 1022.0 |
| 20260510134016 | 11 | 45 | 0.0 | 0.0 | 0.00 | 0.00 | 0.00 | 63 | 1022.0 |
| 20260510133016 | 11 | 45 | 0.0 | 0.0 | 0.00 | 0.00 | 0.00 | 64 | 1021.8 |
| 20260510132918 | 11 | 45 | 0.0 | 0.0 | 0.00 | 0.00 | 0.00 | 64 | 1021.8 |
| 20260510132016 | 11 | 45 | 0.0 | 0.0 | 0.00 | 0.00 | 0.00 | 65 | 1021.8 |
| 20260510131024 | 11 | 45 | 0.0 | 0.0 | 0.00 | 0.00 | 0.00 | 65 | 1021.7 |
| 20260510130117 | 11 | 45 | 0.0 | 0.0 | 0.00 | 0.00 | 0.00 | 64 | 1021.7 |
| 20260510125117 | 11 | 45 | 0.0 | 0.0 | 0.00 | 0.00 | 0.00 | 63 | 1021.9 |
| 20260510124134 | 11 | 45 | 0.0 | 0.0 | 0.00 | 0.00 | 0.00 | 63 | 1021.7 |
| 20260510123119 | 11 | 45 | 0.0 | 0.0 | 0.00 | 0.00 | 0.00 | 65 | 1021.8 |
| 20260510122124 | 11 | 45 | 0.0 | 0.0 | 0.00 | 0.00 | 0.00 | 67 | 1021.7 |
| 20260510121216 | 11 | 45 | 0.0 | 0.0 | 0.00 | 0.00 | 0.00 | 69 | 1021.7 |
| 20260510120218 | 11 | 45 | 0.0 | 0.0 | 0.00 | 0.00 | 0.00 | 70 | 1021.8 |
| 20260510115217 | 11 | 45 | 0.0 | 0.0 | 0.00 | 0.00 | 0.00 | 68 | 1021.6 |
| 20260510114316 | 12 | 45 | 0.0 | 0.0 | 0.00 | 0.00 | 0.00 | 66 | 1021.7 |
| 20260510110316 | 11 | 45 | 0.0 | 0.0 | 0.00 | 0.00 | 0.00 | 78 | 1021.9 |
| 20260510102433 | 12 | 45 | 0.0 | 0.0 | 0.00 | 0.00 | 0.00 | 86 | 1022.0 |
| 20260510101433 | 12 | 45 | 0.0 | 0.0 | 0.00 | 0.00 | 0.00 | 86 | 1022.0 |
| 20260510095517 | 12 | 45 | 0.0 | 0.0 | 0.00 | 0.00 | 0.00 | 85 | 1022.1 |
| 20260510094517 | 11 | 45 | 0.0 | 0.0 | 0.00 | 0.00 | 0.00 | 86 | 1022.1 |
| 20260510093517 | 12 | 45 | 0.0 | 0.0 | 0.00 | 0.00 | 0.00 | 85 | 1022.0 |
| 20260510092517 | 12 | 45 | 0.0 | 0.0 | 0.00 | 0.00 | 0.00 | 84 | 1022.1 |
| 20260510091518 | 12 | 45 | 0.0 | 0.0 | 0.00 | 0.00 | 0.00 | 85 | 1022.0 |
| 20260510090517 | 12 | 45 | 0.0 | 0.0 | 0.00 | 0.00 | 0.00 | 85 | 1022.1 |
| 20260510084618 | 12 | 45 | 0.0 | 0.0 | 0.00 | 0.00 | 0.00 | 84 | 1022.1 |
| 20260510082618 | 12 | 45 | 0.0 | 0.0 | 0.00 | 0.00 | 0.00 | 85 | 1021.9 |
| 20260510081616 | 12 | 45 | 0.0 | 0.0 | 0.00 | 0.00 | 0.00 | 86 | 1022.0 |
| 20260510080618 | 12 | 45 | 0.0 | 0.0 | 0.00 | 0.00 | 0.00 | 86 | 1022.0 |
| 20260510075636 | 12 | 45 | 0.0 | 0.0 | 0.00 | 0.00 | 0.00 | 85 | 1022.1 |
| 20260510074617 | 12 | 45 | 0.0 | 0.0 | 0.00 | 0.00 | 0.00 | 85 | 1022.1 |
| 20260510073716 | 12 | 45 | 0.0 | 0.0 | 0.00 | 0.00 | 0.00 | 86 | 1022.2 |
| 20260510072719 | 12 | 45 | 0.0 | 0.0 | 0.00 | 0.00 | 0.00 | 85 | 1022.2 |
| 20260510071734 | 12 | 45 | 0.0 | 0.0 | 0.00 | 0.00 | 0.00 | 86 | 1022.2 |
| 20260510070816 | 12 | 45 | 0.0 | 0.0 | 0.00 | 0.00 | 0.00 | 86 | 1022.2 |
| 20260510065914 | 12 | 45 | 0.0 | 0.0 | 0.00 | 0.00 | 0.00 | 86 | 1022.1 |
| 20260510064912 | 12 | 45 | 0.0 | 0.0 | 0.00 | 0.00 | 0.00 | 86 | 1022.1 |
| 20260510063912 | 12 | 45 | 0.0 | 0.0 | 0.00 | 0.00 | 0.00 | 85 | 1022.0 |
| 20260510062913 | 12 | 45 | 0.0 | 0.0 | 0.00 | 0.00 | 0.00 | 84 | 1022.0 |
| 20260510062011 | 12 | 45 | 0.0 | 0.0 | 0.00 | 0.00 | 0.00 | 84 | 1021.9 |
| 20260510061015 | 13 | 45 | 0.0 | 0.0 | 0.00 | 0.00 | 0.00 | 84 | 1022.1 |
| 20260510060012 | 13 | 45 | 0.0 | 0.0 | 0.00 | 0.00 | 0.00 | 83 | 1022.2 |
| 20260510055110 | 13 | 45 | 0.0 | 0.0 | 0.00 | 0.00 | 0.00 | 82 | 1022.1 |
| 20260510053112 | 13 | 45 | 0.0 | 0.0 | 0.00 | 0.00 | 0.00 | 82 | 1022.2 |
| 20260510052211 | 13 | 45 | 0.0 | 0.0 | 0.00 | 0.00 | 0.00 | 80 | 1022.2 |
| 20260510051210 | 13 | 45 | 0.0 | 0.0 | 0.00 | 0.00 | 0.00 | 81 | 1022.2 |
| 20260510050212 | 13 | 45 | 0.0 | 0.0 | 0.00 | 0.00 | 0.00 | 79 | 1022.4 |
| 20260510045211 | 13 | 45 | 0.0 | 0.0 | 0.00 | 0.00 | 0.00 | 79 | 1022.4 |
| 20260510044213 | 13 | 45 | 0.0 | 0.0 | 0.00 | 0.00 | 0.00 | 80 | 1022.1 |
| 20260510043310 | 13 | 45 | 0.0 | 0.0 | 0.00 | 0.00 | 0.00 | 78 | 1022.1 |
| 20260510040313 | 15 | 45 | 0.0 | 0.0 | 0.00 | 0.00 | 0.00 | 76 | 1022.1 |
| 20260510035312 | 15 | 45 | 0.0 | 0.0 | 0.00 | 0.00 | 0.00 | 75 | 1022.0 |
| 20260510034311 | 15 | 45 | 0.0 | 0.0 | 0.00 | 0.00 | 0.00 | 75 | 1021.8 |
| 20260510033313 | 15 | 45 | 0.0 | 0.0 | 0.00 | 0.00 | 0.00 | 75 | 1021.9 |
| 20260510032411 | 15 | 45 | 0.0 | 0.0 | 0.00 | 0.00 | 0.00 | 73 | 1021.8 |
| 20260510031412 | 16 | 45 | 0.0 | 0.0 | 0.00 | 0.00 | 0.00 | 73 | 1021.8 |
| 20260510025412 | 16 | 90 | 0.0 | 0.0 | 0.00 | 0.00 | 0.00 | 70 | 1021.7 |
| 20260510024411 | 17 | 90 | 0.0 | 0.0 | 0.00 | 0.00 | 0.00 | 69 | 1021.5 |
| 20260510023411 | 17 | 112 | 0.0 | 0.0 | 0.00 | 0.00 | 0.00 | 68 | 1021.4 |
| 20260510022411 | 17 | 112 | 0.0 | 0.0 | 0.00 | 0.00 | 0.00 | 67 | 1021.4 |
| 20260510021413 | 17 | 112 | 0.0 | 0.0 | 0.00 | 0.00 | 0.00 | 66 | 1021.3 |
| 20260510015428 | 18 | 112 | 0.0 | 0.0 | 0.00 | 0.00 | 0.00 | 63 | 1021.3 |
| 20260510014411 | 18 | 112 | 0.0 | 0.0 | 0.00 | 0.00 | 0.00 | 61 | 1021.3 |
| 20260510013511 | 18 | 53 | 0.0 | 0.0 | 0.00 | 0.00 | 0.00 | 61 | 1021.3 |
| 20260510012512 | 19 | 45 | 0.0 | 0.0 | 0.00 | 0.00 | 0.00 | 60 | 1021.4 |
| 20260510010511 | 20 | 157 | 0.0 | 0.0 | 0.00 | 0.00 | 0.00 | 57 | 1021.4 |
| 20260510005510 | 20 | 9 | 0.0 | 0.0 | 0.00 | 0.00 | 0.00 | 57 | 1021.3 |
| 20260510004512 | 20 | 180 | 0.0 | 0.0 | 0.00 | 0.00 | 0.00 | 56 | 1021.4 |
| 20260510003513 | 20 | 180 | 0.0 | 1.6 | 0.00 | 0.00 | 0.00 | 54 | 1021.4 |
| 20260510002513 | 20 | 180 | 0.0 | 3.2 | 0.00 | 0.00 | 0.00 | 54 | 1021.3 |
| 20260510001513 | 21 | 22 | 0.0 | 0.0 | 0.00 | 0.00 | 0.00 | 51 | 1021.4 |
| 20260510000514 | 21 | 227 | 0.0 | 3.2 | 0.00 | 0.00 | 0.00 | 51 | 1021.3 |
| 20260509235512 | 21 | 264 | 0.0 | 1.6 | 0.00 | 0.00 | 0.00 | 51 | 1021.4 |
| 20260509234512 | 21 | 161 | 0.0 | 4.8 | 0.00 | 0.00 | 0.00 | 50 | 1021.5 |
| 20260509233612 | 21 | 168 | 4.8 | 6.4 | 0.00 | 0.00 | 0.00 | 49 | 1021.4 |
| 20260509232711 | 21 | 112 | 0.0 | 0.0 | 0.00 | 0.00 | 0.00 | 48 | 1021.3 |
| 20260509232627 | 21 | 128 | 0.0 | 3.2 | 0.00 | 0.00 | 0.00 | 48 | 1021.4 |
| 20260509231711 | 21 | 157 | 0.0 | 1.6 | 0.00 | 0.00 | 0.00 | 46 | 1021.4 |
| 20260509230713 | 21 | 200 | 1.6 | 3.2 | 0.00 | 0.00 | 0.00 | 46 | 1021.3 |
| 20260509225711 | 22 | 247 | 0.0 | 1.6 | 0.00 | 0.00 | 0.00 | 44 | 1021.4 |
| 20260509224713 | 22 | 16 | 0.0 | 3.2 | 0.00 | 0.00 | 0.00 | 43 | 1021.5 |
| 20260509223713 | 22 | 151 | 0.0 | 3.2 | 0.00 | 0.00 | 0.00 | 42 | 1021.5 |
| 20260509222712 | 22 | 270 | 0.0 | 1.6 | 0.00 | 0.00 | 0.00 | 42 | 1021.7 |
| 20260509221711 | 22 | 80 | 0.0 | 0.0 | 0.00 | 0.00 | 0.00 | 41 | 1021.8 |
| 20260509215810 | 22 | 180 | 0.0 | 1.6 | 0.00 | 0.00 | 0.00 | 41 | 1021.8 |
| 20260509214811 | 23 | 326 | 0.0 | 4.8 | 0.00 | 0.00 | 0.00 | 41 | 1021.8 |
| 20260509213812 | 23 | 260 | 0.0 | 3.2 | 0.00 | 0.00 | 0.00 | 41 | 1021.9 |
| 20260509211813 | 23 | 158 | 0.0 | 1.6 | 0.00 | 0.00 | 0.00 | 42 | 1022.1 |
| 20260509210813 | 23 | 163 | 3.2 | 8.0 | 0.00 | 0.00 | 0.00 | 41 | 1022.0 |
| 20260509204810 | 25 | 104 | 0.0 | 4.8 | 0.00 | 0.00 | 0.00 | 40 | 1022.0 |
| 20260509202911 | 26 | 71 | 0.0 | 3.2 | 0.00 | 0.00 | 0.00 | 37 | 1022.1 |
| 20260509201912 | 26 | 157 | 0.0 | 1.6 | 0.00 | 0.00 | 0.00 | 38 | 1022.1 |
| 20260509200911 | 25 | 135 | 0.0 | 1.6 | 0.00 | 0.00 | 0.00 | 40 | 1022.1 |
| 20260509200010 | 25 | 176 | 0.0 | 1.6 | 0.00 | 0.00 | 0.00 | 41 | 1022.1 |
| 20260509194012 | 25 | 186 | 0.0 | 1.6 | 0.00 | 0.00 | 0.00 | 40 | 1022.2 |
| 20260509193011 | 25 | 173 | 1.6 | 4.8 | 0.00 | 0.00 | 0.00 | 39 | 1022.2 |
| 20260509192110 | 25 | 202 | 1.6 | 3.2 | 0.00 | 0.00 | 0.00 | 38 | 1022.3 |
| 20260509191113 | 25 | 172 | 4.8 | 8.0 | 0.00 | 0.00 | 0.00 | 38 | 1022.4 |
| 20260509190111 | 25 | 326 | 0.0 | 1.6 | 0.00 | 0.00 | 0.00 | 39 | 1022.3 |
| 20260509185113 | 25 | 26 | 0.0 | 0.0 | 0.00 | 0.00 | 0.00 | 37 | 1022.4 |
| 20260509183210 | 25 | 204 | 0.0 | 0.0 | 0.00 | 0.00 | 0.00 | 36 | 1022.4 |
| 20260509182211 | 24 | 147 | 0.0 | 1.6 | 0.00 | 0.00 | 0.00 | 34 | 1022.4 |
| 20260509181211 | 24 | 70 | 1.6 | 4.8 | 0.00 | 0.00 | 0.00 | 33 | 1022.4 |
| 20260509180212 | 24 | 230 | 0.0 | 4.8 | 0.00 | 0.00 | 0.00 | 35 | 1022.4 |
| 20260509175310 | 23 | 118 | 0.0 | 1.6 | 0.00 | 0.00 | 0.00 | 36 | 1022.4 |
| 20260509174313 | 23 | 224 | 1.6 | 1.6 | 0.00 | 0.00 | 0.00 | 37 | 1022.5 |
| 20260509173312 | 23 | 284 | 0.0 | 3.2 | 0.00 | 0.00 | 0.00 | 36 | 1022.3 |
| 20260509172326 | 22 | 135 | 1.6 | 3.2 | 0.00 | 0.00 | 0.00 | 37 | 1022.4 |
| 20260509171314 | 22 | 157 | 1.6 | 3.2 | 0.00 | 0.00 | 0.00 | 35 | 1022.3 |
| 20260509170412 | 22 | 157 | 3.2 | 3.2 | 0.00 | 0.00 | 0.00 | 35 | 1022.4 |
| 20260509165412 | 22 | 157 | 1.6 | 1.6 | 0.00 | 0.00 | 0.00 | 37 | 1022.5 |
| 20260509164413 | 21 | 157 | 0.0 | 0.0 | 0.00 | 0.00 | 0.00 | 40 | 1022.5 |
| 20260509163412 | 20 | 202 | 0.0 | 0.0 | 0.00 | 0.00 | 0.00 | 41 | 1022.6 |
| 20260509162411 | 20 | 157 | 0.0 | 1.6 | 0.00 | 0.00 | 0.00 | 44 | 1022.4 |
| 20260509161414 | 18 | 135 | 1.6 | 3.2 | 0.00 | 0.00 | 0.00 | 48 | 1022.6 |
| 20260509160414 | 17 | 135 | 0.0 | 3.2 | 0.00 | 0.00 | 0.00 | 51 | 1022.6 |
| 20260509154412 | 15 | 135 | 0.0 | 1.6 | 0.00 | 0.00 | 0.00 | 56 | 1022.6 |
| 20260509152510 | 14 | 67 | 0.0 | 0.0 | 0.00 | 0.00 | 0.00 | 64 | 1022.6 |
| 20260509145512 | 12 | 67 | 0.0 | 0.0 | 0.00 | 0.00 | 0.00 | 64 | 1022.6 |
| 20260509142710 | 11 | 67 | 0.0 | 0.0 | 0.00 | 0.00 | 0.00 | 66 | 1022.4 |